Notices

What's New in latest Release from April 7th, 2021:

- Updated Glossary, including Speed of Maximum Gust, and Total Hourly Precipitation

- Updated national and regional climate services offices contacts and prices information

- Addition of station inventory lists for 1981-2010, 1971-2000, and 1961-1990 Normals.

If you haven't already, please take our survey and provide feedback about our website: https://eccc.sondage-survey.ca/f/LanguageSelection.aspx?s=442ca660-fcf1-47c0-95a9-59707d6fd709

Hourly Data Report for September 07, 2004

SHERBROOKE A
QUEBEC

45°26'00.000" N
71°41'00.000" W
241.40 m
7028124
71610
YSC

Download Data

Hourly Data (September 2004)
Hourly Data Report for September 7, 2004
TIME
LST
Temp Definition
°C
Dew Point Definition
°C
Rel Hum Definition
%
Precip. Amount Definition
mm

Wind Dir Definition
10's deg

Wind Spd Definition
km/h
Visibility Definition
km
Stn Press Definition
kPa
Hmdx Definition


Wind Chill Definition


Weather Definition


00:00 11.8 10.8 94   12 6 15.0 99.10      
01:00 12.0 10.5 91   11 4 15.0 99.06      
02:00 12.4 10.4 88   12 7 15.0 99.02      
03:00 10.4 8.9 90   12 4 15.0 99.02      
04:00 11.2 9.0 86   11 6 15.0 98.98      
05:00 10.7 9.3 91   12 6 15.0 98.99      
06:00 12.3 10.5 89   10 4 15.0 99.01      
07:00 15.3 12.8 85   7 4 24.1 98.99     Mostly Cloudy
08:00 17.2 13.9 81   10 6 24.1 98.93     Mostly Cloudy
09:00 20.6 15.1 71   19 15 24.1 98.88 25   Mostly Cloudy
10:00 22.3 15.6 66   21 20 24.1 98.86 27   Mostly Cloudy
11:00 22.6 15.8 65   22 22 24.1 98.80 27   Mostly Cloudy
12:00 22.8 16.3 67   19 19 24.1 98.77 28   Mostly Cloudy
13:00 23.9 16.5 63   20 22 24.1 98.75 29   Mainly Clear
14:00 23.6 16.8 66   20 15 24.1 98.70 29   Mostly Cloudy
15:00 25.1 17.5 63   22 20 24.1 98.68 31   Mostly Cloudy
16:00 25.0 17.7 64   21 13 24.1 98.67 31   Mainly Clear
17:00 23.9 16.9 65   20 13 15.0 98.65 29    
18:00 22.4 16.9 71   20 13 15.0 98.68 28    
19:00 21.9 16.7 72   20 7 15.0 98.71 27    
20:00 21.5 16.7 74   21 7 15.0 98.75 27    
21:00 20.3 17.4 83   22 4 15.0 98.78 26   Rain
22:00 20.0 17.6 86   24 6 15.0 98.77 26   Rain
23:00 18.4 17.3 93   31 22 2.3 98.88     Moderate Rain

Notes on Data Quality.

Legend

  • E = Estimated
  • M = Missing
  • NA = Not Available*
  • [empty] = Indicates an unobserved value
Date modified: